NOAA 16 DEB

Satellite information

Favourite Embed

Satellite Type and Status

DEBRISIN ORBIT

Key statistics

Satellite NOAA 16 DEB at a glance.

Uptime

8993

Days in orbit

Revolutions

≈ 14.7

Per day

Orbit

SSO

Sun Synchronous Orbit

Inclination

98.9

Latest

Satellite identification and parameters

Extended collection of information and parameters for NOAA 16 DEB.

Object identification

Identified? True

Debris? True

Object name: NOAA 16 DEB

International designator: 2000-055FH

Object number (NORAD): 41257

Object ID (CCSDS): 41257

Country: UNITED STATES OF AMERICA (US)

Current information (Y/N): Y

RCS size: SMALL

Orbital parameters

Period: 98.101 minutes

Inclination: 98.931 deg

SMA: 7046.013 km

Apoapsis: 675.43 km

Periapsis: 660.325 km

RAAN: 283.9125 deg

Eccentricy: 0.0010719

Argument of periapsis: 101.4065 deg

Mean anomaly: 258.8342 deg

Mean motion: 14.67870068 rev/day

Mean motion (dot): 0.00044435 rev/day2

B* drag term: 0.0077291 1/REarth

Two-line elements (TLE)

Creation date: May 4, 2025, 5:21 p.m.

Reference frame: TEME

Reference center: EARTH

Epoch: May 4, 2025, 9:24 a.m. UTC

TLE line 0: 0 NOAA 16 DEB

TLE line 1: 1 41257U 00055FH 25124.39233144 .00044435 00000-0 77291-2 0 9990

TLE line 2: 2 41257 98.9310 283.9125 0010719 101.4065 258.8342 14.67870068484113

Live tracking on map

Real-time ground track for satellite NOAA 16 DEB.

In-orbit conjunctions

A list of the most updated potential collisions computed for object NOAA 16 DEB.

Target Orbit TCA Probability of collision Miss distance Type
FENGYUN 1C DEB SSO 2024-09-26 02:33:59 0.0002234687 570.0 (m) DEBRIS
COSMOS 2251 DEB LEO 2024-09-25 14:27:18 0.0002269459 640.0 (m) DEBRIS
COSMOS 614 LEO 2024-08-17 06:33:15 0.0001012989 312.0 (m) PAYLOAD
IRIDIUM 71 LEO 2024-06-23 01:18:41 0.0001013824 920.0 (m) PAYLOAD

Associated space launch

The NOAA K, L and M POES satellites begin the fifth generation of improved environmental monitoring in support of NOAA missions. The instrument payload has significant improvements and additions/deletions. The instrument changes have effected the spacecraft subsystems and data formats.

NOAA 16 DEB was lifted into orbit during the mission ‘Titan II SLV | NOAA 16’, on board a Titan II SLV space rocket.

The launch took place on Sept. 21, 2000, 10:22 a.m. from Space Launch Complex 4W.

For more information about the launch, click the button.

Launch to space Titan II SLV | NOAA 16
Titan II SLV | NOAA 16

Agency: N/A

Status: Launch Successful

Launch date: Sept. 21, 2000, 10:22 a.m. UTC

Rocket: Titan II SLV

Launch pad: Space Launch Complex 4W

Location: Vandenberg SFB, CA, USA

...

Latest news about this satellite

There are no fresh news available about this satellite. Check back as we update our databases every day.


Newsletter sign-up

Weekly statistics, charts and insights to help you stay on top of the space industry.